Location: ???????
(55.8930°N, 38.0586°E)
Time: 17:51:23
(UTC+00:00)

H-2A R/B - Pass Details

Date: 14 April 2024
Orbit: 732 x 833 km, 98.2° (Epoch: 24 May)

Event Time Altitude Azimuth Distance (km) Brightness Sun altitude
Rises 01:20:06 0° 20° (NNE) 3,186 6.1 -9.0°
Reaches altitude 10° 01:22:35 10° 30° (NNE) 2,266 5.5 -8.7°
Maximum altitude 01:27:05 33° 95° (E) 1,242 3.7 -8.1°
Drops below altitude 10° 01:31:39 10° 159° (SSE) 2,297 4.4 -7.6°
Sets 01:34:10 0° 169° (S) 3,235 5.1 -7.3°
